Regional Weather Roundup
Issued by NWS

Home | Current Version | Previous Version | Text Only | Print | Product List | Glossary Off
Versions: 1 2 3 4 5 6 7 8 9 10 11 12 13 14 15 16 17 18 19 20 21 22 23 24 25 26 27 28 29 30 31 32 33 34 35 36 37 38 39 40 41 42 43 44 45 46 47 48 49 50

811
ASUS43 KIND 271600
RWRIN

WEATHER ROUNDUP FOR INDIANA
NATIONAL WEATHER SERVICE INDIANAPOLIS IN
1200 PM EDT SAT MAY 27 2017

NOTE: "FAIR" INDICATES FEW OR NO CLOUDS BELOW 12,000 FEET WITH NO
SIGNIFICANT WEATHER AND/OR OBSTRUCTIONS TO VISIBILITY.

* - STATION DOES NOT REPORT WEATHER SUCH AS PRECIPITATION OR FOG.

+ - STATION NOT QUALITY CONTROLLED BY THE NATIONAL WEATHER SERVICE.
    USE DATA WITH CAUTION...ESPECIALLY DEWPOINT AND RELATIVE
    HUMIDITY OBSERVATIONS.

INZ001>003-010>013-019-020-271700-
NORTHWEST INDIANA

CITY           SKY/WX    TMP DP  RH WIND       PRES   REMARKS
GARY /AIRPORT/ PTSUNNY   61  54  77 VRB3      29.92F
MICHIGAN CITY+ CLOUDY    64  63  94 N3        29.92F
MONTICELLO +   CLOUDY    64  61  89 NE8       29.89S
RENSSELAER +   CLOUDY    68  61  77 NE10      29.89F

$$

LMZ046-743>745-271700-
SOUTHERN LAKE MICHIGAN

STATION/POSITION TIME  TEMP    WIND        PRES    WAVE
                       AIR SEA DIR/SP/G            HT
                 (UTC) (F)     (DEG/KT/KT) (MB)    (FT)
BURNS HARBOR     1540   53     360/  4/  7 1013.9F
MICHIGAN CITY    1530   56     310/  4/  4   N/A
5NW MICH CITY    1550   52 55  330/  6/  6   N/A     1

$$

INZ004-005-014>016-021>024-271700-
NORTH CENTRAL INDIANA

CITY           SKY/WX    TMP DP  RH WIND       PRES   REMARKS
ELKHART        PTSUNNY  N/A N/A N/A CALM      29.91F
GOSHEN         CLOUDY    67  59  75 NE5       29.90F
PERU/GRISSOM   CLOUDY    66  66 100 N9        29.88S
SOUTH BEND     CLOUDY    66  61  84 NE7       29.91F

$$

INZ006>009-017-018-025>027-271700-
NORTHEAST INDIANA

CITY           SKY/WX    TMP DP  RH WIND       PRES   REMARKS
FORT WAYNE     CLOUDY    70  61  73 NE6       29.89F
KENDALLVILLE + CLOUDY    67  61  81 NE6       29.91F

$$

INZ028-029-035-036-043>045-051>053-271700-
WEST CENTRAL INDIANA

CITY           SKY/WX    TMP DP  RH WIND       PRES   REMARKS
CRAWFORDSVL +  CLOUDY   -31 -31 100 NW3       29.90R
GREENCASTLE +  CLOUDY    68  61  77 NW3       29.91R
LAFAYETTE      CLOUDY    66  62  87 N8        29.88S
TERRE HAUTE    CLOUDY    71  62  73 NW3       29.90R

$$

INZ030>032-037>040-046>048-054>057-064-065-271700-
CENTRAL INDIANA

CITY           SKY/WX    TMP DP  RH WIND       PRES   REMARKS
ANDERSON       PTSUNNY  N/A N/A N/A NW12      29.89R
COLUMBUS       CLOUDY    75  64  69 SW3       29.88R
GREENWOOD *+   MOSUNNY   73  65  75 NW6       29.89R
INDIANAPOLIS   PTSUNNY   70  62  76 W6        29.89R
-EAGLE CREEK   CLOUDY    70  62  76 NW5       29.89R
KOKOMO +       CLOUDY    68  64  87 N9        29.90R
SHELBYVILLE    MOSUNNY   78  64  61 SW5       29.87R

$$

INZ033-034-041-042-049-050-058-059-271700-
EAST CENTRAL INDIANA

CITY           SKY/WX    TMP DP  RH WIND       PRES   REMARKS
MUNCIE         MOSUNNY   73  66  78 N9        29.87R
RICHMOND +     PTSUNNY   72  64  78 SW5       29.89R

$$

INZ060-061-067>069-081>083-085>088-271700-
SOUTHWEST INDIANA

CITY           SKY/WX    TMP DP  RH WIND       PRES   REMARKS
EVANSVILLE     MOSUNNY   82  69  64 CALM      29.87F
HUNTINGBURG *+ PTSUNNY   77  71  82 S7        29.88F

$$

INZ062-063-066-070>080-084-089>092-271700-
SOUTH CENTRAL AND SOUTHEAST INDIANA

CITY           SKY/WX    TMP DP  RH WIND       PRES   REMARKS
BLOOMINGTON    PTSUNNY   76  64  66 SW7       29.89R
MADISON *+     CLOUDY    75  68  78 SW8       29.91S
SEYMOUR +      CLOUDY    77  68  73 SW9       29.88S

$$





USA.gov is the U.S. government's official web portal to all federal, state and local government web resources and services.